Mytilini, Greece

3:50 AM EET on December 13, 2018 (GMT +0200)
Odysseas Elytis

Weather History for LGMT - December, 2018

Change the Weather History Date:

Thursday, December 6, 2018

  Actual Average Record
Temperature  
Mean Temperature 46 °F -  
Max Temperature 49 °F 56 °F 68 °F (2008)
Min Temperature 44 °F 47 °F 38 °F (2013)
Degree Days  
Heating Degree Days 18    
Moisture  
Dew Point 37 °F    
Average Humidity 65    
Maximum Humidity 76    
Minimum Humidity 52    
Precipitation  
Precipitation 0.00 in 0.19 in - ()
Sea Level Pressure  
Sea Level Pressure 30.08 in    
Wind  
Wind Speed 15 mph ()    
Max Wind Speed 22 mph    
Max Gust Speed 34 mph    
Visibility 6.3 miles    
Events      
Averages and records for this station are not official NWS values.
T = Trace of Precipitation, MM = Missing Value Source: Averaged Metar Reports

Daily Weather History Graph

Daily Weather History Graph

Search for Another Location

Airport or City:

Astronomy

Dec. 06, 2018 Rise Set
Actual Time 7:18 AM EET 4:50 PM EET
Civil Twilight 6:48 AM EET 5:20 PM EET
Nautical Twilight 6:15 AM EET 5:53 PM EET
Astronomical Twilight 5:42 AM EET 6:26 PM EET
Moon 6:06 AM EET (12/6) 4:33 PM EET (12/6)
Length of Visible Light 10h 32m
Length of Day
9h 32m
Waning Crescent, 1% of the Moon is Illuminated
Dec 6
Waning Crescent
Dec 7
New
Dec 15
First Quarter
Dec 22
Full
Dec 29
Last Quarter

Hourly Weather History & Observations

Time (EET) Temp. Windchill Dew Point Humidity Pressure Visibility Wind Dir Wind Speed Gust Speed Precip Events Conditions
6:20 AM 48.2 °F - 39.2 °F 71% 30.01 in 6.2 mi North 13.8 mph 25.3 mph N/A   Scattered Clouds
6:50 AM 48.2 °F - 39.2 °F 71% 30.04 in 6.2 mi North 16.1 mph 27.6 mph N/A   Scattered Clouds
7:20 AM 48.2 °F - 39.2 °F 71% 30.04 in 6.2 mi North 17.3 mph - N/A   Scattered Clouds
8:00 AM 48 °F - 39 °F 61% 30.06 in 6 mi North 15.0 mph - -   Partly Cloudy
8:20 AM 48.2 °F - 39.2 °F 71% 30.06 in 6.2 mi North 15.0 mph 26.5 mph N/A   Scattered Clouds
8:50 AM 48.2 °F - 39.2 °F 71% 30.06 in 6.2 mi North 15.0 mph 26.5 mph N/A   Scattered Clouds
9:20 AM 48.2 °F - 39.2 °F 71% 30.06 in 6.2 mi North 17.3 mph 28.8 mph N/A   Partly Cloudy
9:50 AM 48.2 °F - 39.2 °F 71% 30.06 in 6.2 mi North 18.4 mph 29.9 mph N/A   Partly Cloudy
10:20 AM 48.2 °F - 37.4 °F 66% 30.09 in 6.2 mi North 18.4 mph 29.9 mph N/A   Partly Cloudy
10:50 AM 48.2 °F - 37.4 °F 66% 30.09 in 6.2 mi North 19.6 mph 32.2 mph N/A   Partly Cloudy
11:00 AM 48 °F - 37 °F 56% 30.11 in 6 mi North 19.6 mph - -   Scattered Clouds
11:20 AM 48.2 °F - 37.4 °F 66% 30.09 in 6.2 mi North 17.3 mph 29.9 mph N/A   Partly Cloudy
11:50 AM 48.2 °F - 37.4 °F 66% 30.09 in 6.2 mi North 16.1 mph - N/A   Partly Cloudy
12:20 PM 48.2 °F - 37.4 °F 66% 30.09 in 6.2 mi North 17.3 mph 28.8 mph N/A   Scattered Clouds
12:50 PM 48.2 °F - 37.4 °F 66% 30.09 in 6.2 mi North 17.3 mph 28.8 mph N/A   Scattered Clouds
1:20 PM 48.2 °F - 37.4 °F 66% 30.06 in 6.2 mi North 16.1 mph - N/A   Scattered Clouds
1:50 PM 48.2 °F - 37.4 °F 66% 30.06 in 6.2 mi North 15.0 mph 26.5 mph N/A   Scattered Clouds
2:00 PM 49 °F - 38 °F 55% 30.09 in 6 mi North 15.0 mph - -   Partly Cloudy
2:20 PM 48.2 °F - 35.6 °F 62% 30.06 in 6.2 mi North 17.3 mph 28.8 mph N/A   Partly Cloudy
2:50 PM 48.2 °F - 35.6 °F 62% 30.06 in 6.2 mi North 16.1 mph 28.8 mph N/A   Partly Cloudy
3:20 PM 48.2 °F - 35.6 °F 62% 30.06 in 6.2 mi NNE 18.4 mph 31.1 mph N/A   Partly Cloudy
3:50 PM 48.2 °F - 41.0 °F 76% 30.06 in 6.2 mi NNE 21.9 mph 34.5 mph N/A   Partly Cloudy
4:20 PM 48.2 °F - 41.0 °F 76% 30.06 in 6.2 mi NNE 18.4 mph 29.9 mph N/A   Partly Cloudy
4:50 PM 46.4 °F 39.8 °F 37.4 °F 71% 30.06 in 6.2 mi North 16.1 mph 27.6 mph N/A   Partly Cloudy
5:00 PM 47 °F - 37 °F 60% 30.08 in 9 mi North 21.9 mph - -   Scattered Clouds
5:20 PM 46.4 °F 39.8 °F 37.4 °F 71% 30.09 in 6.2 mi North 16.1 mph 27.6 mph N/A   Partly Cloudy
6:50 PM 46.4 °F 39.8 °F 33.8 °F 62% 30.09 in 6.2 mi North 16.1 mph 27.6 mph N/A   Partly Cloudy
7:20 PM 46.4 °F 40.1 °F 33.8 °F 62% 30.12 in 6.2 mi North 15.0 mph 26.5 mph N/A   Partly Cloudy
7:50 PM 46.4 °F 40.1 °F 33.8 °F 62% 30.12 in 6.2 mi North 15.0 mph 26.5 mph N/A   Partly Cloudy
8:00 PM 46 °F - 34 °F 52% 30.13 in 9 mi North 20.7 mph - -   Scattered Clouds
8:20 PM 46.4 °F 41.1 °F 33.8 °F 62% 30.12 in 6.2 mi North 11.5 mph - N/A   Partly Cloudy
8:50 PM 44.6 °F 37.4 °F 32.0 °F 61% 30.12 in 6.2 mi North 16.1 mph - N/A   Partly Cloudy
9:20 PM 44.6 °F 37.2 °F 32.0 °F 61% 30.12 in 6.2 mi North 17.3 mph 28.8 mph N/A   Partly Cloudy
9:50 PM 44.6 °F 37.8 °F 32.0 °F 61% 30.12 in 6.2 mi North 15.0 mph 26.5 mph N/A   Partly Cloudy